| time (UTC) | temp F | wind direction | speed MPH | gust MPH | rain 1hr in | rain 24hr in | rain mn in | humidity % | barometer mb |
| 20260503001818 | 76 | 90 | 3.0 | 6.0 | 0.00 | 0.20 | 0.01 | 76 | 1019.2 |
| 20260503000819 | 76 | 158 | 5.0 | 6.0 | 0.00 | 0.20 | 0.01 | 76 | 1019.3 |
| 20260502235818 | 76 | 180 | 6.0 | 8.0 | 0.01 | 0.20 | 0.01 | 74 | 1019.4 |
| 20260502234819 | 76 | 180 | 6.0 | 8.0 | 0.01 | 0.20 | 0.01 | 75 | 1019.4 |
| 20260502233838 | 76 | 113 | 3.0 | 4.0 | 0.01 | 0.20 | 0.01 | 76 | 1019.5 |
| 20260502232839 | 75 | 180 | 3.0 | 4.0 | 0.01 | 0.20 | 0.01 | 76 | 1019.6 |
| 20260502231818 | 75 | 203 | 5.0 | 8.0 | 0.01 | 0.20 | 0.01 | 77 | 1019.6 |
| 20260502230819 | 74 | 158 | 7.0 | 9.0 | 0.01 | 0.20 | 0.01 | 77 | 1019.6 |
| 20260502225818 | 74 | 135 | 4.0 | 6.0 | 0.00 | 0.19 | 0.00 | 78 | 1019.4 |
| 20260502224839 | 74 | 158 | 3.0 | 5.0 | 0.00 | 0.19 | 0.00 | 78 | 1019.4 |
| 20260502223818 | 73 | 158 | 2.0 | 4.0 | 0.00 | 0.19 | 0.00 | 79 | 1019.3 |
| 20260502222818 | 73 | 158 | 4.0 | 5.0 | 0.00 | 0.19 | 0.00 | 79 | 1019.4 |
| 20260502221818 | 72 | 203 | 3.0 | 4.0 | 0.00 | 0.19 | 0.00 | 80 | 1019.3 |
| 20260502220818 | 71 | 203 | 4.0 | 5.0 | 0.00 | 0.19 | 0.00 | 82 | 1019.1 |
| 20260502215818 | 71 | 158 | 3.0 | 4.0 | 0.00 | 0.19 | 0.00 | 82 | 1018.9 |
| 20260502214818 | 70 | 180 | 2.0 | 3.0 | 0.00 | 0.19 | 0.00 | 83 | 1018.9 |
| 20260502213818 | 69 | 158 | 3.0 | 8.0 | 0.00 | 0.19 | 0.00 | 84 | 1018.8 |
| 20260502212818 | 69 | 180 | 3.0 | 4.0 | 0.00 | 0.19 | 0.00 | 84 | 1018.7 |
| 20260502211818 | 68 | 158 | 3.0 | 3.0 | 0.00 | 0.19 | 0.00 | 85 | 1018.6 |
| 20260502210818 | 67 | 158 | 3.0 | 6.0 | 0.00 | 0.19 | 0.00 | 86 | 1018.7 |
| 20260502205818 | 66 | 203 | 2.0 | 3.0 | 0.00 | 0.19 | 0.00 | 87 | 1018.6 |
| 20260502204818 | 66 | 203 | 1.0 | 2.0 | 0.00 | 0.19 | 0.00 | 87 | 1018.5 |
| 20260502203818 | 65 | 203 | 1.0 | 2.0 | 0.00 | 0.19 | 0.00 | 87 | 1018.5 |
| 20260502202818 | 65 | 203 | 1.0 | 1.0 | 0.00 | 0.19 | 0.00 | 87 | 1018.5 |
| 20260502201818 | 65 | 203 | 1.0 | 1.0 | 0.00 | 0.19 | 0.00 | 87 | 1018.5 |
| 20260502200818 | 65 | 203 | 2.0 | 3.0 | 0.00 | 0.19 | 0.00 | 86 | 1018.4 |
| 20260502195838 | 65 | 203 | 2.0 | 3.0 | 0.00 | 0.19 | 0.00 | 86 | 1018.2 |
| 20260502194818 | 65 | 203 | 2.0 | 3.0 | 0.00 | 0.19 | 0.00 | 85 | 1018.2 |
| 20260502193818 | 65 | 203 | 2.0 | 3.0 | 0.00 | 0.19 | 0.00 | 86 | 1017.9 |
| 20260502192818 | 65 | 203 | 2.0 | 3.0 | 0.00 | 0.19 | 0.00 | 86 | 1018.1 |
| 20260502191818 | 65 | 203 | 1.0 | 2.0 | 0.00 | 0.19 | 0.00 | 86 | 1018.0 |
| 20260502190818 | 65 | 203 | 2.0 | 2.0 | 0.00 | 0.19 | 0.00 | 86 | 1018.0 |
| 20260502185817 | 65 | 203 | 1.0 | 1.0 | 0.00 | 0.19 | 0.00 | 85 | 1017.9 |
| 20260502184818 | 65 | 203 | 1.0 | 2.0 | 0.00 | 0.19 | 0.00 | 84 | 1018.0 |
| 20260502183817 | 65 | 203 | 3.0 | 3.0 | 0.00 | 0.19 | 0.00 | 84 | 1018.1 |
| 20260502182838 | 66 | 203 | 1.0 | 2.0 | 0.00 | 0.19 | 0.00 | 83 | 1017.7 |
| 20260502181818 | 66 | 203 | 1.0 | 2.0 | 0.00 | 0.19 | 0.00 | 84 | 1017.8 |
| 20260502180817 | 66 | 203 | 1.0 | 2.0 | 0.00 | 0.19 | 0.00 | 84 | 1017.8 |
| 20260502164138 | 66 | 180 | 2.0 | 3.0 | 0.00 | 0.28 | 0.00 | 84 | 1018.1 |
| 20260502163117 | 66 | 203 | 2.0 | 3.0 | 0.00 | 0.28 | 0.00 | 84 | 1018.2 |
| 20260502162117 | 66 | 158 | 3.0 | 6.0 | 0.00 | 0.28 | 0.00 | 85 | 1018.3 |
| 20260502161137 | 65 | 158 | 2.0 | 4.0 | 0.00 | 0.28 | 0.00 | 85 | 1018.4 |
| 20260502160118 | 66 | 0.0 | 1.0 | 0.00 | 0.28 | 0.00 | 85 | 1018.4 | |
| 20260502152118 | 68 | 158 | 3.0 | 5.0 | 0.00 | 0.28 | 0.00 | 82 | 1019.0 |
| 20260502151117 | 68 | 180 | 2.0 | 4.0 | 0.00 | 0.28 | 0.00 | 81 | 1019.2 |
| 20260502150118 | 68 | 203 | 2.0 | 2.0 | 0.00 | 0.28 | 0.00 | 82 | 1019.1 |
| 20260502140120 | 69 | 203 | 1.0 | 2.0 | 0.00 | 0.28 | 0.00 | 83 | 1019.3 |
| 20260502130119 | 69 | 180 | 1.0 | 2.0 | 0.00 | 0.31 | 0.28 | 83 | 1019.4 |
| 20260502123118 | 69 | 203 | 1.0 | 3.0 | 0.00 | 0.31 | 0.28 | 82 | 1019.6 |
| 20260502122138 | 69 | 180 | 2.0 | 3.0 | 0.00 | 0.31 | 0.28 | 81 | 1019.8 |
| 20260502121118 | 70 | 180 | 2.0 | 3.0 | 0.00 | 0.31 | 0.28 | 80 | 1019.8 |
| 20260502120119 | 71 | 158 | 2.0 | 3.0 | 0.00 | 0.31 | 0.28 | 79 | 1019.9 |
| 20260502115117 | 71 | 180 | 1.0 | 2.0 | 0.00 | 0.31 | 0.28 | 78 | 1019.9 |
| 20260502114139 | 71 | 180 | 3.0 | 8.0 | 0.00 | 0.31 | 0.28 | 78 | 1020.0 |
| 20260502113118 | 71 | 158 | 2.0 | 3.0 | 0.00 | 0.31 | 0.28 | 79 | 1020.0 |
| 20260502112119 | 71 | 0.0 | 1.0 | 0.00 | 0.31 | 0.28 | 79 | 1020.0 | |
| 20260502111118 | 71 | 158 | 2.0 | 4.0 | 0.00 | 0.32 | 0.28 | 79 | 1019.9 |
| 20260502110124 | 71 | 135 | 2.0 | 3.0 | 0.00 | 0.33 | 0.28 | 79 | 1019.9 |
| 20260502105118 | 71 | 180 | 1.0 | 3.0 | 0.00 | 0.33 | 0.28 | 79 | 1019.8 |
| 20260502104139 | 71 | 203 | 2.0 | 5.0 | 0.00 | 0.33 | 0.28 | 79 | 1019.7 |
| 20260502103118 | 71 | 180 | 3.0 | 5.0 | 0.00 | 0.35 | 0.28 | 80 | 1019.6 |
| 20260502102119 | 71 | 158 | 3.0 | 5.0 | 0.00 | 0.35 | 0.28 | 81 | 1019.6 |
| 20260502101117 | 71 | 135 | 2.0 | 8.0 | 0.00 | 0.35 | 0.28 | 82 | 1019.6 |
| 20260502100119 | 71 | 158 | 3.0 | 5.0 | 0.00 | 0.36 | 0.28 | 81 | 1019.5 |
| 20260502091117 | 70 | 135 | 1.0 | 2.0 | 0.00 | 0.58 | 0.28 | 85 | 1018.9 |
| 20260502090118 | 70 | 113 | 1.0 | 3.0 | 0.00 | 0.58 | 0.28 | 86 | 1018.9 |
| 20260502071117 | 71 | 135 | 3.0 | 4.0 | 0.00 | 0.72 | 0.27 | 88 | 1018.2 |
| 20260502070118 | 71 | 0.0 | 1.0 | 0.00 | 0.74 | 0.27 | 89 | 1018.1 | |
| 20260502065117 | 71 | 0.0 | 1.0 | 0.00 | 0.75 | 0.27 | 89 | 1018.0 | |
| 20260502064118 | 70 | 0.0 | 1.0 | 0.01 | 0.76 | 0.27 | 89 | 1017.9 | |
| 20260502063117 | 70 | 90 | 1.0 | 3.0 | 0.02 | 0.76 | 0.27 | 89 | 1017.9 |
| 20260502062118 | 70 | 90 | 2.0 | 3.0 | 0.08 | 0.76 | 0.27 | 90 | 1018.0 |
| 20260502061117 | 70 | 113 | 3.0 | 6.0 | 0.08 | 0.76 | 0.27 | 90 | 1017.8 |
| 20260502060138 | 70 | 113 | 1.0 | 3.0 | 0.08 | 0.76 | 0.27 | 90 | 1017.8 |
| 20260502055117 | 70 | 113 | 4.0 | 6.0 | 0.08 | 0.76 | 0.27 | 89 | 1017.8 |
| 20260502054117 | 71 | 90 | 1.0 | 3.0 | 0.08 | 0.75 | 0.26 | 89 | 1017.6 |
| 20260502053138 | 72 | 68 | 5.0 | 8.0 | 0.07 | 0.74 | 0.25 | 87 | 1017.8 |
| 20260502052118 | 72 | 113 | 1.0 | 2.0 | 0.01 | 0.68 | 0.19 | 88 | 1017.7 |
| 20260502051117 | 72 | 113 | 1.0 | 2.0 | 0.02 | 0.68 | 0.19 | 89 | 1017.8 |
| 20260502050118 | 72 | 113 | 2.0 | 3.0 | 0.02 | 0.68 | 0.19 | 89 | 1017.8 |
| 20260502045117 | 72 | 113 | 4.0 | 6.0 | 0.02 | 0.68 | 0.19 | 88 | 1017.9 |
| 20260502044117 | 73 | 135 | 6.0 | 11.0 | 0.02 | 0.67 | 0.18 | 89 | 1018.0 |
| 20260502043117 | 72 | 113 | 1.0 | 2.0 | 0.02 | 0.67 | 0.18 | 92 | 1017.7 |
| 20260502042117 | 71 | 135 | 1.0 | 2.0 | 0.03 | 0.67 | 0.18 | 91 | 1017.9 |
| 20260502041157 | 71 | 90 | 2.0 | 3.0 | 0.05 | 0.66 | 0.17 | 91 | 1017.9 |
| 20260502040117 | 70 | 90 | 1.0 | 3.0 | 0.05 | 0.66 | 0.17 | 90 | 1018.1 |
| 20260502035117 | 70 | 68 | 3.0 | 4.0 | 0.04 | 0.65 | 0.17 | 90 | 1018.0 |
| 20260502034118 | 70 | 0.0 | 1.0 | 0.05 | 0.65 | 0.17 | 90 | 1018.1 | |
| 20260502033137 | 70 | 90 | 2.0 | 4.0 | 0.05 | 0.65 | 0.17 | 89 | 1018.1 |
| 20260502032117 | 70 | 113 | 3.0 | 6.0 | 0.03 | 0.64 | 0.15 | 87 | 1018.5 |
| 20260502031117 | 71 | 113 | 7.0 | 11.0 | 0.01 | 0.61 | 0.13 | 87 | 1018.6 |
| 20260502030117 | 71 | 68 | 2.0 | 4.0 | 0.01 | 0.61 | 0.13 | 86 | 1018.7 |
| 20260502025137 | 73 | 113 | 4.0 | 8.0 | 0.01 | 0.61 | 0.13 | 82 | 1018.9 |
| 20260502024118 | 73 | 113 | 4.0 | 7.0 | 0.00 | 0.61 | 0.12 | 80 | 1018.9 |
| 20260502023117 | 74 | 113 | 5.0 | 8.0 | 0.00 | 0.61 | 0.12 | 78 | 1019.0 |
| 20260502022117 | 75 | 158 | 7.0 | 12.0 | 0.00 | 0.61 | 0.12 | 77 | 1019.1 |
| 20260502021116 | 76 | 90 | 7.0 | 13.0 | 0.00 | 0.61 | 0.12 | 77 | 1019.0 |
| 20260502020117 | 77 | 158 | 6.0 | 12.0 | 0.02 | 0.61 | 0.12 | 77 | 1019.1 |
| 20260502015117 | 76 | 113 | 6.0 | 11.0 | 0.02 | 0.61 | 0.12 | 79 | 1019.2 |
| 20260502014117 | 75 | 113 | 5.0 | 9.0 | 0.02 | 0.61 | 0.12 | 81 | 1019.4 |
| 20260502013116 | 74 | 135 | 4.0 | 8.0 | 0.02 | 0.61 | 0.12 | 82 | 1019.7 |
| 20260502012117 | 74 | 113 | 2.0 | 3.0 | 0.02 | 0.61 | 0.12 | 84 | 1019.8 |
| 20260502011137 | 75 | 113 | 4.0 | 12.0 | 0.02 | 0.61 | 0.12 | 82 | 1019.9 |
| 20260502010117 | 76 | 135 | 5.0 | 10.0 | 0.00 | 0.58 | 0.09 | 76 | 1019.9 |
| 20260502005137 | 76 | 113 | 6.0 | 10.0 | 0.00 | 0.58 | 0.09 | 75 | 1020.1 |
| 20260502004117 | 77 | 113 | 5.0 | 7.0 | 0.00 | 0.58 | 0.09 | 75 | 1020.1 |
| 20260502003119 | 77 | 113 | 5.0 | 11.0 | 0.00 | 0.58 | 0.09 | 75 | 1020.3 |